Tracking 20719 objects as of 26-May-2020
HD Live streaming from Space Station
objects crossing your sky now

QUANTUTONG 1

Track QUANTUTONG 1 now!
10-day predictions
QUANTUTONG 1 is classified as:


NORAD ID: 43158
Int'l Code: 2018-008D
Perigee: 532.7 km
Apogee: 549.8 km
Inclination: 97.4 °
Period: 95.3 minutes
Semi major axis: 6912 km
RCS: Unknown
Launch date: January 19, 2018
Source: People's Republic of China (PRC)
Launch site: Jiuquan Satellite Launch Center, China (JSC)

Uplink (MHz): 436.100/2415.000/5667.000
Downlink (MHz): 436.100/2415.000/5845.000
Beacon (MHz):
Mode: 9k6 GMSK/5Mbps OFDM
Call sign:
Status: Inactive

aabbcc
Your satellite tracking list
Your tracking list is empty




NASA's NSSDC Master Catalog

Two Line Element Set (TLE):
1 43158U 18008D   20146.75225601  .00000878  00000-0  56733-4 0  9990
2 43158  97.4464 215.3570 0012378 220.9828 291.7187 15.10684841129399
Source of the keplerian elements: AMSAT